This is the latest recevied weather packets stored in our database for station/object HB9TJM-8. If no packets are shown the sender has not sent any weather packets the latest 10 day(s).
| Time | Temp. | Humidity | Pressure | Rain* | Wind** | Luminosity | Snow |
|---|---|---|---|---|---|---|---|
| 1777791558 | 12.78° C | 60% | 1016.8 hPa | 0 mm | - | 119 W/m² | - |
| 1777791251 | 12.22° C | 61% | 1017.2 hPa | 0 mm | - | 117 W/m² | - |
| 1777790943 | 12.22° C | 62% | 1017.4 hPa | 0 mm | - | 120 W/m² | - |
| 1777790635 | 12.78° C | 60% | 1017.6 hPa | 0 mm | - | 133 W/m² | - |
| 1777790328 | 12.78° C | 61% | 1017.7 hPa | 0 mm | - | 124 W/m² | - |
| 1777790020 | 12.78° C | 57% | 1017.4 hPa | 0 mm | - | 84 W/m² | - |
| 1777789713 | 12.78° C | 53% | 1017.6 hPa | 0 mm | - | 64 W/m² | - |
| 1777789406 | 12.78° C | 61% | 1017.7 hPa | 0 mm | - | 78 W/m² | - |
| 1777789098 | 12.78° C | 55% | 1017.4 hPa | 0 mm | - | 117 W/m² | - |
| 1777788790 | 13.33° C | 47% | 1017.8 hPa | 0 mm | - | 122 W/m² | - |
| 1777788482 | 12.78° C | 45% | 1017.4 hPa | 0 mm | - | 115 W/m² | - |
| 1777788175 | 12.78° C | 53% | 1018.2 hPa | 0 mm | - | 102 W/m² | - |
| 1777787867 | 12.78° C | 50% | 1017.8 hPa | 0 mm | - | 96 W/m² | - |
| 1777787559 | 12.78° C | 53% | 1017.5 hPa | 0 mm | - | 77 W/m² | - |
| 1777787252 | 12.22° C | 50% | 1017.7 hPa | 0 mm | - | 59 W/m² | - |
| 1777786637 | 11.67° C | 56% | 1017.6 hPa | 0 mm | - | 40 W/m² | - |
| 1777786330 | 11.67° C | 56% | 1017.8 hPa | 0 mm | - | 40 W/m² | - |
| 1777786023 | 11.67° C | 57% | 1017.7 hPa | 0 mm | - | 40 W/m² | - |
| 1777785715 | 11.67° C | 57% | 1017.3 hPa | 0 mm | - | 47 W/m² | - |
| 1777785408 | 12.22° C | 55% | 1017.4 hPa | 0 mm | - | 50 W/m² | - |
| 1777785100 | 12.22° C | 51% | 1017.7 hPa | 0 mm | - | 39 W/m² | - |
| 1777784792 | 12.22° C | 48% | 1017.3 hPa | 0 mm | - | 26 W/m² | - |
| 1777784485 | 12.22° C | 49% | 1017.3 hPa | 0 mm | - | 15 W/m² | - |
| 1777784177 | 12.78° C | 48% | 1017.3 hPa | 0 mm | - | 10 W/m² | - |
| 1777783870 | 12.78° C | 47% | 1017.6 hPa | 0 mm | - | 6 W/m² | - |
* Rain latest hour (hover to see other rain measurements)
** Current wind speed in m/s (hover to see current wind gust speed)